Location: Caltech
(34.1382°N, 118.1253°W)
Time: 22:56:50
(UTC-07:00)

Meteor 2-4 Rocket - Visible Passes

Search period start: 19 September 2014 00:00
Search period end: 29 September 2014 00:00
Orbit: 800 x 909 km, 81.2° (Epoch: 03 September)

Date Brightness Start Highest point End Pass type
(mag) Time Alt. Az. Time Alt. Az. Time Alt. Az.
19 Sep 6.0 04:22:14 10° SE 04:26:53 25° E 04:31:30 10° NE visible
19 Sep 4.3 06:04:08 10° SW 06:09:35 38° WNW 06:15:02 10° N visible
20 Sep 6.0 04:11:32 10° SE 04:16:01 23° E 04:20:29 10° NE visible
20 Sep 4.3 05:53:09 10° SSW 05:58:41 41° WNW 06:04:11 10° N visible
21 Sep 6.1 04:00:51 10° SE 04:05:10 21° E 04:09:27 10° NE visible
21 Sep 4.2 05:42:11 10° SSW 05:47:47 43° WNW 05:53:20 10° N visible
22 Sep 6.1 03:50:10 10° SE 03:54:18 20° E 03:58:24 10° NE visible
22 Sep 4.1 05:31:14 10° SSW 05:36:52 46° WNW 05:42:29 10° N visible
23 Sep 6.2 03:39:31 10° SE 03:43:27 19° E 03:47:21 10° NE visible
23 Sep 4.0 05:20:42 12° SSW 05:25:58 49° WNW 05:31:38 10° N visible
24 Sep 6.2 03:29:15 11° ESE 03:32:35 17° E 03:36:16 10° NE visible
24 Sep 3.9 05:11:26 22° SSW 05:15:04 53° W 05:20:46 10° N visible
25 Sep 6.2 03:19:45 14° ESE 03:21:44 16° E 03:25:09 10° NE visible
25 Sep 3.8 05:01:56 36° SW 05:04:10 56° W 05:09:53 10° N visible
26 Sep 6.3 03:10:05 15° E 03:10:53 15° E 03:14:01 10° NE visible
26 Sep 3.8 04:52:15 52° WSW 04:53:16 60° W 04:59:01 10° N visible
27 Sep 6.4 03:00:17 14° E 03:00:17 14° E 03:02:50 10° NE visible
27 Sep 3.7 04:42:26 64° WNW 04:42:26 64° WNW 04:48:08 10° N visible
28 Sep 6.5 02:50:22 12° ENE 02:50:22 12° ENE 02:51:36 10° ENE visible
28 Sep 4.0 04:32:31 57° NNW 04:32:31 57° NNW 04:37:15 10° N visible
